Location: Unspecified
(0.0000°N, 0.0000°E)
Time: 16:25:22
(UTC+00:00)

Vanguard 1 - Pass Details

Date: 27 November 2019
Orbit: 651 x 3832 km, 34.3° (Epoch: 11 December)

Event Time Altitude Azimuth Distance (km) Brightness Sun altitude
Rises 02:50:43 0° 225° (SW) 7,112 14.3 -40.6°
Reaches altitude 10° 02:55:12 10° 221° (SW) 6,383 14.0 -39.6°
Maximum altitude 03:17:33 62° 143° (SE) 4,108 13.2 -34.6°
Drops below altitude 10° 03:38:06 10° 67° (ENE) 5,996 14.5 -29.9°
Sets 03:42:04 0° 64° (ENE) 6,690 14.8 -29.0°
